Regional Weather Roundup
Issued by NWS Cleveland, OH

Home | Current Version | Previous Version | Graphics & Text | Print | Product List | Glossary On
Versions: 1 2 3 4 5 6 7 8 9 10 11 12 13 14 15 16 17 18 19 20 21 22 23 24 25 26 27 28 29 30 31 32 33 34 35 36 37 38 39 40 41 42 43 44 45 46 47 48 49 50
000
ASUS41 KCLE 310010
RWRCLE
OHIO REGIONAL WEATHER ROUNDUP
NATIONAL WEATHER SERVICE CLEVELAND, OH
800 PM EDT SAT JUL 30 2016

NOTE: "FAIR" INDICATES FEW OR NO CLOUDS BELOW 12,000 FEET WITH NO
SIGNIFICANT WEATHER AND/OR OBSTRUCTIONS TO VISIBILITY.

OHZ001>008-015>018-024>027-034-035-043-044-310100-
   NORTHWEST OHIO

CITY           SKY/WX    TMP DP  RH WIND       PRES   REMARKS
DEFIANCE       PTCLDY    79  68  69 E7        29.93S
FINDLAY        PTCLDY    82  65  56 VRB6      29.92S
TOLEDO EXPRESS PTCLDY    74  70  87 E9        29.93F
TOLEDO EXEC    PTCLDY    75  70  84 NE6       29.94S
LIMA           CLEAR     79  69  71 N3        29.94S
$$

OHZ009>014-019>023-028>033-038-089-310100-
   NORTHEAST OHIO

CITY           SKY/WX    TMP DP  RH WIND       PRES   REMARKS
CLE-HOPKINS    PTCLDY    76  67  73 E5        29.95F
CLE-LAKEFRONT  PTCLDY    76  68  76 SE3       29.92F
CUY CO. ARPT   PTCLDY    75  72  88 CALM      29.95F
LORAIN-ELYRIA  PTCLDY    75  69  81 CALM      29.93F
ASHTABULA      MOCLDY    76  72  87 CALM      29.95F
AKRON-CANTON   MOCLDY    73  66  78 N5        29.95S
WOOSTER        MOCLDY    74  69  85 CALM      29.96S
MANSFIELD      CLEAR     77  65  66 VRB3      29.95F
YOUNGSTOWN     MOCLDY    72  68  87 E6        29.95F
$$

OHZ042-051>053-060>062-070>072-077>081-310100-
  SOUTHWEST OHIO

CITY           SKY/WX    TMP DP  RH WIND       PRES   REMARKS
CINC-COVINGTON MOCLDY    80  69  69 SW3       29.95F
CINC-LUNKEN    MOCLDY    80  73  79 S7        29.94S
HAMILTON       CLEAR     84  65  52 W7        29.94S
DAYTON         PTCLDY    80  67  64 W6        29.95S
WRIGHT-PAT AFB CLEAR     83  68  60 W6        29.93S
DAYTON GENERAL CLEAR     83  63  50 W9        29.94S
WILMINGTON     CLEAR     82  68  62 SW8       29.94F
$$

OHZ036-037-039>041-045>050-054>059-063>069-073>076-082>088-310100-
  CENTRAL AND SOUTHEAST OHIO

CITY           SKY/WX    TMP DP  RH WIND       PRES   REMARKS
COLUMBUS       MOCLDY    82  66  58 NW3       29.91S
OSU AIRPORT    CLOUDY    76  71  85 N10       29.93R
BOLTON FIELD   CLEAR     80  71  72 SW7       29.94
RICKENBACK AFB CLEAR     82  68  63 SW3       29.92S
NEWARK         CLOUDY    72  69  90 E6        29.95R
MARION         CLOUDY    78  68  71 SE5       29.94F
LANCASTER      CLEAR     82  68  62 W6        29.94R
ZANESVILLE     CLOUDY    75  68  78 N8        29.96R
NEW PHILLY     PTCLDY    76  69  79 CALM      29.94F
$$



USA.gov is the U.S. government's official web portal to all federal, state and local government web resources and services.